Adelanto, California, United States (92301)
Lat: 34.58N, Lon: 117.41W
Wx Zone: CAZ060
Local Info
Past Weather Observations for Thursday, February 4, 2016

NOTE: This archive is for the closest National Weather Service station to Adelanto. Information may differ from the station used for current weather conditions.

Click here for Long-term Archive

Time Weather Temperature Dewpoint Humidity Pressure Winds Precip Visibility
23:55
Fair
32°F / 0°C 16°F / -9°C 51% 30.42 in
(1030 mb)
Calm - 10SM
23:35
Fair
34°F / 1°C 16°F / -9°C 48% 30.42 in
(1030 mb)
Calm - 10SM
23:15
Fair
34°F / 1°C 16°F / -9°C 48% 30.42 in
(1030 mb)
Calm - 10SM
22:55
Fair
34°F / 1°C 16°F / -9°C 48% 30.42 in
(1030 mb)
Calm - 10SM
22:35
Fair
34°F / 1°C 16°F / -9°C 48% 30.42 in
(1030 mb)
Calm - 10SM
22:15
Clear
36°F / 2°C 16°F / -9°C 44% 30.42 in
(1030 mb)
Calm - 10SM
21:55
Clear
36°F / 2°C 16°F / -9°C 44% 30.42 in
(1030 mb)
Calm - 10SM
21:35
Clear
36°F / 2°C 14°F / -10°C 41% 30.42 in
(1030 mb)
Calm - 10SM
21:15
Clear
36°F / 2°C 14°F / -10°C 41% 30.39 in
(1029 mb)
Calm - 10SM
20:55
Clear
36°F / 2°C 12°F / -11°C 38% 30.39 in
(1029 mb)
Calm - 10SM
20:35
Fair
36°F / 2°C 12°F / -11°C 38% 30.39 in
(1029 mb)
Calm - 10SM
20:15
Clear
36°F / 2°C 12°F / -11°C 38% 30.39 in
(1029 mb)
Calm - 10SM
19:55
Clear
39°F / 4°C 12°F / -11°C 33% 30.36 in
(1028 mb)
Calm - 10SM
19:35
Clear
45°F / 7°C 12°F / -11°C 27% 30.36 in
(1028 mb)
Calm - 10SM
19:15
Clear
45°F / 7°C 12°F / -11°C 27% 30.36 in
(1028 mb)
Calm - 10SM
18:55
Clear
45°F / 7°C 12°F / -11°C 27% 30.36 in
(1028 mb)
Calm - 10SM
18:35
Clear
46°F / 8°C 12°F / -11°C 25% 30.36 in
(1028 mb)
Calm - 10SM
18:15
Clear
45°F / 7°C 12°F / -11°C 27% 30.33 in
(1027 mb)
Calm - 10SM
17:55
Clear
46°F / 8°C 12°F / -11°C 25% 30.33 in
(1027 mb)
Calm - 10SM
17:35
Clear
48°F / 9°C 12°F / -11°C 23% 30.33 in
(1027 mb)
Calm - 10SM
17:15
Clear
50°F / 10°C 12°F / -11°C 22% 30.33 in
(1027 mb)
Calm - 10SM
16:55
Partly Cloudy
52°F / 11°C 12°F / -11°C 20% 30.33 in
(1027 mb)
Calm - 10SM
16:35
Partly Cloudy
54°F / 12°C 10°F / -12°C 18% 30.33 in
(1027 mb)
N 8.1 mph
(N 13 kph)
- 10SM
16:15
Clear
54°F / 12°C 10°F / -12°C 18% 30.33 in
(1027 mb)
N 9.2 mph
(N 15 kph)
- 10SM
15:55
Partly Cloudy
55°F / 13°C 10°F / -12°C 16% 30.33 in
(1027 mb)
N 8.1 mph
(N 13 kph)
- 10SM
15:35
Partly Cloudy
55°F / 13°C 9°F / -13°C 15% 30.33 in
(1027 mb)
NE 9.2 mph
(NE 15 kph)
- 10SM
15:15
Partly Cloudy
55°F / 13°C 10°F / -12°C 16% 30.33 in
(1027 mb)
NNE 6.9 mph
(NNE 11 kph)
- 10SM
14:55
Clear
54°F / 12°C 10°F / -12°C 18% 30.33 in
(1027 mb)
NE 5.8 mph
(NE 9 kph)
- 10SM
14:35
Clear
54°F / 12°C 10°F / -12°C 18% 30.33 in
(1027 mb)
Calm - 10SM
14:15
Clear
54°F / 12°C 9°F / -13°C 16% 30.33 in
(1027 mb)
NNE 4.6 mph
(NNE 7 kph)
- 10SM
13:55
Clear
54°F / 12°C 9°F / -13°C 16% 30.36 in
(1028 mb)
Calm - 10SM
13:35
Clear
54°F / 12°C 10°F / -12°C 18% 30.36 in
(1028 mb)
NNE 8.1 mph
(NNE 13 kph)
- 10SM
13:15
Clear
52°F / 11°C 10°F / -12°C 19% 30.36 in
(1028 mb)
N 8.1 mph
(N 13 kph)
- 10SM
12:55
Clear
52°F / 11°C 10°F / -12°C 19% 30.36 in
(1028 mb)
N 3.5 mph
(N 6 kph)
- 10SM
12:35
Clear
52°F / 11°C 12°F / -11°C 20% 30.39 in
(1029 mb)
N 5.8 mph
(N 9 kph)
- 10SM
12:15
Clear
52°F / 11°C 10°F / -12°C 19% 30.39 in
(1029 mb)
NNE 6.9 mph
(NNE 11 kph)
- 10SM
11:55
Clear
50°F / 10°C 10°F / -12°C 20% 30.39 in
(1029 mb)
Calm - 10SM
11:35
Clear
48°F / 9°C 12°F / -11°C 23% 30.42 in
(1030 mb)
N 5.8 mph
(N 9 kph)
- 10SM
11:15
Clear
48°F / 9°C 10°F / -12°C 21% 30.42 in
(1030 mb)
N 8.1 mph
(N 13 kph)
- 10SM
10:55
Clear
48°F / 9°C 10°F / -12°C 21% 30.42 in
(1030 mb)
Calm - 10SM
10:35
Partly Cloudy
46°F / 8°C 12°F / -11°C 25% 30.45 in
(1031 mb)
Calm - 10SM
10:15
Partly Cloudy
45°F / 7°C 12°F / -11°C 27% 30.45 in
(1031 mb)
Calm - 10SM
09:55
Clear
43°F / 6°C 12°F / -11°C 29% 30.45 in
(1031 mb)
Calm - 10SM
09:35
Clear
43°F / 6°C 12°F / -11°C 29% 30.45 in
(1031 mb)
Calm - 10SM
09:15
Clear
39°F / 4°C 12°F / -11°C 33% 30.45 in
(1031 mb)
Calm - 10SM
08:55
Fair
39°F / 4°C 12°F / -11°C 33% 30.45 in
(1031 mb)
Calm - 10SM
08:35
Fair
37°F / 3°C 12°F / -11°C 35% 30.45 in
(1031 mb)
Calm - 10SM
08:15
Fair
34°F / 1°C 18°F / -8°C 51% 30.42 in
(1030 mb)
Calm - 10SM
07:55
Fair
30°F / -1°C 19°F / -7°C 64% 30.42 in
(1030 mb)
Calm - 10SM
07:35
Fair
28°F / -2°C 18°F / -8°C 64% 30.42 in
(1030 mb)
Calm - 10SM
07:15
Fair
25°F / -4°C 16°F / -9°C 69% 30.42 in
(1030 mb)
Calm - 10SM
06:55
Fair
27°F / -3°C 16°F / -9°C 64% 30.42 in
(1030 mb)
Calm - 10SM
06:35
Fair
27°F / -3°C 14°F / -10°C 59% 30.39 in
(1029 mb)
Calm - 10SM
06:15
Fair
25°F / -4°C 14°F / -10°C 63% 30.39 in
(1029 mb)
Calm - 10SM
05:55
Fair
27°F / -3°C 14°F / -10°C 59% 30.39 in
(1029 mb)
Calm - 10SM
05:35
Fair
25°F / -4°C 16°F / -9°C 69% 30.39 in
(1029 mb)
Calm - 10SM
05:15
Fair
23°F / -5°C 14°F / -10°C 68% 30.39 in
(1029 mb)
Calm - 10SM
04:55
Fair
25°F / -4°C 14°F / -10°C 63% 30.39 in
(1029 mb)
Calm - 10SM
04:35
Fair
27°F / -3°C 14°F / -10°C 59% 30.39 in
(1029 mb)
Calm - 10SM
04:15
Fair
27°F / -3°C 16°F / -9°C 64% 30.39 in
(1029 mb)
Calm - 10SM
03:55
Fair
25°F / -4°C 16°F / -9°C 69% 30.36 in
(1028 mb)
Calm - 10SM
03:35
Fair
28°F / -2°C 16°F / -9°C 59% 30.36 in
(1028 mb)
Calm - 10SM
03:15
Fair
27°F / -3°C 16°F / -9°C 64% 30.36 in
(1028 mb)
Calm - 10SM
02:55
Fair
27°F / -3°C 16°F / -9°C 64% 30.39 in
(1029 mb)
Calm - 10SM
02:35
Fair
27°F / -3°C 16°F / -9°C 64% 30.36 in
(1028 mb)
Calm - 10SM
02:15
Fair
28°F / -2°C 14°F / -10°C 55% 30.39 in
(1029 mb)
Calm - 7SM
01:55
Fair
30°F / -1°C 16°F / -9°C 55% 30.39 in
(1029 mb)
Calm - 10SM
01:35
Fair
32°F / 0°C 16°F / -9°C 51% 30.39 in
(1029 mb)
Calm - 10SM
01:15
Fair
30°F / -1°C 16°F / -9°C 55% 30.39 in
(1029 mb)
Calm - 10SM
00:55
Fair
30°F / -1°C 16°F / -9°C 55% 30.39 in
(1029 mb)
Calm - 10SM
00:35
Fair
32°F / 0°C 14°F / -10°C 47% 30.39 in
(1029 mb)
Calm - 10SM
00:15
Fair
30°F / -1°C 14°F / -10°C 51% 30.39 in
(1029 mb)
Calm - 10SM
Time Weather Temperature Dewpoint Humidity Pressure Winds Precip Visibility


Weather for websites

WeatherForYou.com, LLC is not responsible for any damages or problems caused by this service. Current weather conditions are obtained from the closest station including government and personal stations which may have varying degrees of accuracy. Weather forecasts are derived from the NOAA NDFD. Like all things, this site belongs to Jesus Christ... He just trusts us to maintain it. If you have any questions or comments email webmaster@weatherforyou.com

Copyright © 2016, WeatherForYou.com LLC. All rights reserved.